Rechercher aéroport 
image banner adimage banner adimage banner ad
image banner ad

11CN - Shasta Rgnl Medical Center

Situé à Redding, United States

ICAO - 11CN, IATA -

Données fournies par Airmate  

Information générale

Coordonnées: N40°35'8" W122°23'16"
Élévation : 622 feet MSL.
 
Voir autres Aéroports à California

Données opérationnelles

Special qualification required
Heure actuelle UTC:
Heure actuelle locale:
Météo à : KRDD - Redding Muni ( 12 km )
METAR: KRDD 300153Z 16011KT 10SM FU CLR 41/12 A2975 RMK AO2 SLP067 T04060117
TAF: KRDD 292350Z 3000/3024 18008KT P6SM SCT200 FM300500 VRB04KT P6SM SCT200 FM302300 18008KT P6SM SCT150
Voir NOTAMs / SUP AIP / TFR affectant cet aéroport [VIEW]
Fréquences de communication: [VIEW]

Pistes:

Coordonnées de l'aéroport

Adresse: Redding United States

Vue satellite de 11CN